カタログに戻る

STARLINK-37073

運用中通信SSO
NORAD 68151·PAYLOAD·🇺🇸 United States

打ち上げ Mar 13, 2026 から Vandenberg Space Force Base

Loading…

次のパス (今後24時間)

TLE

最新Source: CelesTrak SupGP

元期: Sep 15, 2026, 03:53 UTC

1 68151C 26049K   26258.16229167 -.00052919  00000+0 -16429-2 0  2588
2 68151  97.2837 278.2191 0001210  91.0551 307.4711 15.33463472    16

AllMySatでSTARLINK-37073をリアルタイム追跡

Download on the App Store